Marysville, CA

11:15 PM PDT on July 26, 2017 (GMT -0700)
Yuba County

Weather History for KMYV - October, 2012

Change the Weather History Date:

Thursday, October 25, 2012

  Actual Average Record
Temperature  
Mean Temperature 57 °F -  
Max Temperature 68 °F 76 °F 93 °F (2003)
Min Temperature 48 °F 50 °F 40 °F (1954)
Degree Days  
Heating Degree Days 8    
Growing Degree Days 7 (Base 50)    
Moisture  
Dew Point 47 °F    
Average Humidity 70    
Maximum Humidity 97    
Minimum Humidity 45    
Precipitation  
Precipitation 0.00 in - - ()
Sea Level Pressure  
Sea Level Pressure 30.25 in    
Wind  
Wind Speed 5 mph (NNW)    
Max Wind Speed 17 mph    
Max Gust Speed 22 mph    
Visibility 10 miles    
Events      
Averages and records for this station are not official NWS values.
T = Trace of Precipitation, MM = Missing Value Source: NWS Daily Summary

Daily Weather History Graph

Daily Weather History Graph

Search for Another Location

Airport or City:

Trip Planner

Search our weather history database for the weather conditions in past years. The results will help you decide how hot, cold, wet, or windy it might be!

Date:

Astronomy

Oct. 25, 2012 Rise Set
Actual Time 7:26 AM PDT 6:13 PM PDT
Civil Twilight 6:59 AM PDT 6:40 PM PDT
Nautical Twilight 6:28 AM PDT 7:11 PM PDT
Astronomical Twilight 5:57 AM PDT 7:42 PM PDT
Moon 4:00 PM PDT (10/25) 3:30 AM PDT (10/25)
Length of Visible Light 11h 40m
Length of Day
10h 46m
Waxing Gibbous, 85% of the Moon is Illuminated
Oct 25
Waxing Gibbous
Oct 29
Full
Nov 6
Last Quarter
Nov 13
New
Nov 20
First Quarter

Hourly Weather History & Observations

Time (PDT) Temp. Dew Point Humidity Pressure Visibility Wind Dir Wind Speed Gust Speed Precip Events Conditions
12:53 AM 54.0 °F 48.9 °F 83% 30.21 in 10.0 mi Calm Calm - N/A   Overcast
1:53 AM 54.0 °F 50.0 °F 86% 30.22 in 10.0 mi East 3.5 mph - N/A   Overcast
2:53 AM 54.0 °F 50.0 °F 86% 30.23 in 10.0 mi Calm Calm - N/A   Overcast
3:53 AM 53.1 °F 50.0 °F 89% 30.22 in 10.0 mi Calm Calm - 0.00 in   Mostly Cloudy
4:53 AM 51.1 °F 48.9 °F 92% 30.23 in 10.0 mi Calm Calm - N/A   Mostly Cloudy
5:53 AM 52.0 °F 50.0 °F 93% 30.25 in 10.0 mi Calm Calm - N/A   Overcast
6:53 AM 51.1 °F 48.9 °F 92% 30.26 in 10.0 mi ESE 3.5 mph - N/A   Overcast
7:53 AM 48.9 °F 48.0 °F 97% 30.28 in 10.0 mi Calm Calm - N/A   Partly Cloudy
8:53 AM 52.0 °F 48.9 °F 89% 30.30 in 10.0 mi North 5.8 mph - N/A   Clear
9:53 AM 55.0 °F 50.0 °F 83% 30.30 in 10.0 mi Variable 3.5 mph - N/A   Clear
10:53 AM 57.0 °F 50.0 °F 77% 30.30 in 10.0 mi NW 6.9 mph - N/A   Scattered Clouds
11:53 AM 61.0 °F 48.9 °F 64% 30.30 in 10.0 mi NW 9.2 mph - N/A   Clear
12:53 PM 64.0 °F 48.9 °F 58% 30.29 in 10.0 mi North 11.5 mph - N/A   Clear
1:53 PM 66.0 °F 46.9 °F 50% 30.26 in 10.0 mi NNW 16.1 mph 20.7 mph N/A   Clear
2:53 PM 66.9 °F 46.0 °F 47% 30.24 in 10.0 mi NW 15.0 mph - N/A   Clear
3:53 PM 66.9 °F 46.0 °F 47% 30.23 in 10.0 mi NNW 13.8 mph 21.9 mph N/A   Clear
4:53 PM 66.0 °F 44.1 °F 45% 30.23 in 10.0 mi NNW 17.3 mph 21.9 mph N/A   Clear
5:53 PM 63.0 °F 42.1 °F 46% 30.22 in 10.0 mi NNW 12.7 mph - N/A   Clear
6:53 PM 61.0 °F 41.0 °F 48% 30.22 in 10.0 mi NNW 13.8 mph - N/A   Clear
7:53 PM 60.1 °F 39.0 °F 46% 30.22 in 10.0 mi NNW 15.0 mph - N/A   Clear
9:53 PM 55.9 °F 39.0 °F 53% 30.22 in 10.0 mi NNW 13.8 mph 20.7 mph N/A   Clear
10:53 PM 54.0 °F 39.9 °F 59% 30.23 in 10.0 mi NNW 11.5 mph - N/A   Clear